[[{"header":{"parameterUnit":"m.s-1","parameterCategory":1,"la1":30.2991,"la2":30.254,"lo1":-89.0895,"lo2":-89.0444,"dy":0.0017,"dx":0.0017,"nx":28,"ny":28,"refTime":"2024-07-02T21:00:00:Z","depth":0,"parameterNumber":2,"parameterNumberName":"U-component_of_WINDS"},"data":[0,0,0,0,0,0,0,0,0,0,0,0,0,0,0,0,0,0,0,0,0,0,0,0,0,0,0,0,0,0,0,0,0,0,0,0,0,0,0,0,0,0,0,0,0,0,0,0,0,0,0,0,0,0,0,0,0,0,3.0636,3.0637,0,3.072,3.0721,3.0722,3.0696,3.0695,3.0693,3.0691,3.0778,3.0782,3.0786,0,0,0,0,0,0,0,0,0,0,0,0,0,3.0451,3.0455,3.0636,3.0637,3.0638,3.072,3.0721,3.0723,3.0697,3.0694,3.0692,3.069,3.0777,3.0782,3.0786,0,0,0,0,0,0,0,0,0,0,0,0,0,3.0533,3.0456,3.0636,3.0635,3.0636,3.072,3.0722,3.0723,3.0697,3.0694,3.0692,3.0689,3.0775,3.0781,3.0787,3.0877,0,0,3.0805,3.0808,0,0,0,0,0,0,0,0,3.0529,3.054,3.0634,3.0635,3.0636,3.0695,3.0688,3.0775,3.0698,3.0674,3.0691,3.0688,3.0753,3.076,3.0782,3.0881,3.0885,3.0806,3.0809,3.0812,3.0814,0,0,0,0,0,0,0,3.0523,3.0536,3.067,3.0636,3.0637,3.063,3.0639,3.0704,3.0727,3.0676,3.0674,3.0684,3.0753,3.0776,3.0784,3.0886,3.0806,3.0811,3.0815,3.0817,3.106,3.1062,0,0,0,0,0,0,3.0517,3.0532,3.0667,3.0672,3.0575,3.0636,3.0645,3.0679,3.0727,3.0731,3.0687,3.0683,3.0768,3.0777,3.0787,3.0892,3.0812,3.0818,3.0821,3.1057,3.106,3.1063,0,0,0,0,0,0,3.0513,3.0529,3.0663,3.0601,3.0618,3.0642,3.068,3.0682,3.0706,3.0735,3.0739,3.0707,3.0766,3.0779,3.0854,3.0895,3.082,3.0826,3.1053,3.1058,3.1062,3.1106,0,0,0,0,0,0,3.0508,3.0528,3.0563,3.0602,3.0621,3.073,3.0682,3.0686,3.0716,3.0712,3.0754,3.0759,3.0765,3.0845,3.086,3.0902,3.083,3.105,3.1055,3.106,3.1101,3.1111,3.112,0,0,0,0,0,3.0501,3.0573,3.0565,3.0581,3.0666,3.0732,3.0743,3.0748,3.0719,3.0754,3.0772,3.0758,3.0889,3.0853,3.087,3.0914,3.1047,3.1054,3.106,3.1097,3.1109,3.112,0,0,0,0,0,0,3.0539,3.0578,3.057,3.0657,3.0691,3.0728,3.0772,3.0762,3.0805,3.08,3.0804,3.0814,3.0891,3.091,3.087,3.1002,3.0964,3.0974,3.0986,3.0998,3.1008,3.1,3.0835,0,0,0,0,0,3.0557,3.0608,3.064,3.0713,3.0731,3.0748,3.0778,3.0778,3.0814,3.0829,3.0853,3.0888,3.0937,3.0969,3.1016,3.1104,3.1111,3.1143,3.1152,3.116,3.1168,3.1213,3.1226,3.1084,3.1084,3.1084,0,0,3.0596,3.0623,3.0655,3.0721,3.0748,3.0799,3.0761,3.0818,3.0855,3.0838,3.0909,3.0928,3.0968,3.1049,3.1086,3.1067,3.1209,3.1168,3.1174,3.1178,3.1221,3.1234,3.1246,3.1089,3.1088,3.1087,0,0,3.0691,3.0719,3.0781,3.0808,3.0848,3.0859,3.0874,3.0912,3.0923,3.0995,3.0981,3.1026,3.1112,3.1139,3.1164,3.1267,3.1254,3.1283,3.1332,3.1376,3.1387,3.1396,3.143,3.1442,3.1291,3.1291,3.1291,0,3.0734,3.081,3.0814,3.0871,3.0899,3.0885,3.0947,3.0973,3.1027,3.1046,3.1025,3.1129,3.1155,3.1241,3.1265,3.1288,3.1303,3.1277,3.1385,3.1395,3.1404,3.1436,3.1449,3.1294,3.1294,3.1294,3.1293,0,3.0859,3.0912,3.0958,3.1008,3.1042,3.1102,3.1113,3.1147,3.1144,3.1157,3.1229,3.1259,3.131,3.1331,3.133,3.1416,3.1402,3.1383,3.1344,3.142,3.145,3.1463,3.1298,3.1297,3.1296,3.1296,0,0,3.0981,3.1031,3.1047,3.1068,3.1111,3.1152,3.121,3.1259,3.1286,3.1324,3.137,3.1442,3.1423,3.1451,3.1453,3.1492,3.1567,3.1467,3.1468,3.1482,3.1659,3.1671,3.1686,3.1559,3.1562,3.1564,3.1655,0,3.1077,3.1178,3.1182,3.1274,3.1321,3.1307,3.1357,3.1388,3.1401,3.1442,3.1457,3.1506,3.1479,3.1496,3.1533,3.155,3.1602,3.1544,3.1601,3.1603,3.1588,3.1702,3.1716,3.18,3.1667,3.1669,3.1671,0,3.1203,3.1242,3.1338,3.1371,3.1391,3.1436,3.1479,3.152,3.1554,3.156,3.1591,3.1586,3.1644,3.1604,3.1682,3.1642,3.1666,3.1678,3.1681,3.1684,3.1639,3.1706,3.1828,3.1839,3.169,3.1688,3.1687,0,3.1278,3.1355,3.1421,3.1441,3.1481,3.1512,3.1531,3.1562,3.159,3.1628,3.1646,3.1691,3.1715,3.175,3.1756,3.1728,3.1833,3.1795,3.1838,3.1838,3.186,3.1858,3.1984,3.188,3.188,3.1879,3.1879,0,3.1383,3.1442,3.1455,3.1495,3.1559,3.1563,3.1627,3.1643,3.167,3.1713,3.1704,3.1744,3.1752,3.1794,3.18,3.1861,3.1873,3.1879,3.1879,3.1878,3.1877,3.1892,3.1885,3.1883,3.1882,3.1881,3.1881,0,3.1477,3.1488,3.1559,3.1591,3.16,3.1646,3.1673,3.1711,3.1722,3.1776,3.1789,3.1807,3.1854,3.1865,3.1923,3.1927,3.1998,3.1995,3.1987,3.1985,3.2026,3.2021,3.2165,3.2183,3.2069,3.207,3.2071,0,3.1542,3.1586,3.1622,3.1649,3.1669,3.1714,3.1741,3.1747,3.1776,3.1816,3.1849,3.1896,3.1933,3.201,3.2028,3.2071,3.2066,3.2114,3.2073,3.2069,3.2063,3.2059,3.2062,3.2121,3.2122,3.2123,3.2124,0,3.1655,3.1658,3.1699,3.174,3.1774,3.1807,3.1839,3.1862,3.1871,3.1904,3.1952,3.1981,3.2038,3.2084,3.2127,3.2145,3.2135,3.2137,3.2148,3.2146,3.2138,3.2139,3.2005,3.2133,3.2132,3.2131,3.2131,3.213,3.1735,3.1772,3.1802,3.1846,3.187,3.19,3.1936,3.1951,3.1991,3.2037,3.2038,3.209,3.212,3.2176,3.2197,3.2237,3.2222,3.224,3.2244,3.2247,3.2249,3.2134,3.2245,3.2245,3.2245,3.2244,3.2244,0,3.1844,3.1863,3.1904,3.1947,3.1981,3.1969,3.2003,3.2032,3.2078,3.2107,3.2143,3.2197,3.224,3.2261,3.2304,3.2331,3.2328,3.2342,3.2339,3.2342,3.2262,3.2246,3.2344,3.2344,3.2344,3.2344,3.2344,3.2344,3.1905,3.1966,3.1972,3.2044,3.2062,3.2112,3.2132,3.2158,3.2181,3.2241,3.2276,3.2289,3.2314,3.2358,3.2397,3.2402,3.2417,3.2433,3.2435,3.2359,3.2349,3.2339,3.2324,3.2437,3.2437,3.2512,3.2512,3.2513]},{"header":{"parameterUnit":"m.s-1","parameterCategory":1,"la1":30.2991,"la2":30.254,"lo1":-89.0895,"lo2":-89.0444,"dy":0.0017,"dx":0.0017,"nx":28,"ny":28,"refTime":"2024-07-02T21:00:00:Z","depth":0,"parameterNumber":3,"parameterNumberName":"V-component_of_WINDS"},"data":[0,0,0,0,0,0,0,0,0,0,0,0,0,0,0,0,0,0,0,0,0,0,0,0,0,0,0,0,0,0,0,0,0,0,0,0,0,0,0,0,0,0,0,0,0,0,0,0,0,0,0,0,0,0,0,0,0,0,2.3666,2.3667,0,2.3699,2.3699,2.37,2.3673,2.3672,2.3671,2.3669,2.3702,2.3704,2.3706,0,0,0,0,0,0,0,0,0,0,0,0,0,2.3579,2.358,2.3666,2.3667,2.3667,2.3699,2.3699,2.37,2.3673,2.3672,2.367,2.3669,2.3701,2.3703,2.3706,0,0,0,0,0,0,0,0,0,0,0,0,0,2.3615,2.3581,2.3666,2.3658,2.3657,2.3699,2.3699,2.37,2.3673,2.3672,2.367,2.3668,2.37,2.3703,2.3706,2.3758,0,0,2.3715,2.3716,0,0,0,0,0,0,0,0,2.3613,2.3618,2.3659,2.3658,2.3658,2.368,2.368,2.3719,2.3674,2.3667,2.3669,2.3667,2.3696,2.3699,2.3709,2.3759,2.376,2.3715,2.3717,2.3718,2.3719,0,0,0,0,0,0,0,2.361,2.3616,2.3679,2.3659,2.3659,2.3651,2.3655,2.3688,2.3691,2.3668,2.3666,2.367,2.3695,2.3706,2.3709,2.3761,2.3715,2.3717,2.3719,2.372,2.3853,2.3855,0,0,0,0,0,0,2.3609,2.3614,2.3678,2.368,2.3631,2.3654,2.3658,2.3675,2.369,2.3691,2.3671,2.3669,2.3702,2.3706,2.371,2.377,2.3718,2.3721,2.3722,2.3851,2.3853,2.3855,0,0,0,0,0,0,2.3607,2.3615,2.3677,2.3647,2.3654,2.3658,2.3677,2.3676,2.3687,2.3693,2.3693,2.3682,2.3701,2.3706,2.3746,2.3771,2.3722,2.3725,2.3849,2.3852,2.3854,2.3892,0,0,0,0,0,0,2.3605,2.3614,2.3635,2.3648,2.3656,2.3713,2.3678,2.3678,2.3692,2.3689,2.3703,2.3704,2.37,2.3742,2.3749,2.3774,2.3727,2.3847,2.385,2.3854,2.3888,2.3896,2.3902,0,0,0,0,0,2.3602,2.3644,2.3636,2.3644,2.3681,2.3714,2.3719,2.3714,2.3694,2.3714,2.3718,2.3703,2.3767,2.3746,2.3753,2.378,2.3845,2.3849,2.3853,2.3885,2.3894,2.3902,0,0,0,0,0,0,2.3634,2.3646,2.3637,2.3685,2.3699,2.3709,2.3734,2.3724,2.3743,2.3739,2.3732,2.3735,2.3776,2.3782,2.3758,2.383,2.3803,2.3809,2.3825,2.3833,2.384,2.3837,2.3729,0,0,0,0,0,2.3647,2.3673,2.3681,2.3723,2.373,2.3731,2.3745,2.374,2.3754,2.376,2.3766,2.378,2.3803,2.3819,2.384,2.3889,2.3891,2.3911,2.3918,2.3923,2.3928,2.3953,2.3962,2.3869,2.3869,2.3869,0,0,2.3673,2.3683,2.37,2.3729,2.374,2.3766,2.3736,2.3766,2.3785,2.3764,2.3801,2.3807,2.3821,2.3865,2.3885,2.3872,2.3954,2.3929,2.3933,2.3935,2.3958,2.3967,2.3975,2.3872,2.3871,2.3871,0,0,2.3735,2.3745,2.378,2.3791,2.3807,2.3807,2.3815,2.3827,2.383,2.3867,2.3852,2.3874,2.3915,2.3925,2.3936,2.4,2.3987,2.4007,2.4042,2.4066,2.4073,2.408,2.4101,2.4109,2.4012,2.4012,2.4012,0,2.3766,2.3805,2.3799,2.383,2.3842,2.3825,2.3859,2.387,2.3892,2.3901,2.3886,2.3935,2.3943,2.3989,2.4004,2.4014,2.4022,2.4005,2.4073,2.4079,2.4085,2.4105,2.4114,2.4015,2.4014,2.4014,2.4014,0,2.3842,2.3869,2.3895,2.3917,2.3933,2.3965,2.3963,2.398,2.3973,2.3974,2.4012,2.4021,2.4044,2.4055,2.4049,2.4099,2.409,2.4074,2.4046,2.4096,2.4115,2.4123,2.4018,2.4017,2.4016,2.4016,0,0,2.3925,2.3942,2.3952,2.396,2.3976,2.3997,2.4027,2.405,2.4063,2.4079,2.4104,2.4138,2.4122,2.4135,2.4129,2.4151,2.4199,2.4132,2.4132,2.4143,2.4253,2.4265,2.4274,2.419,2.4192,2.4193,2.4252,0,2.3986,2.404,2.4035,2.4086,2.4111,2.4094,2.412,2.4132,2.4134,2.4154,2.4156,2.418,2.4159,2.4166,2.4186,2.4189,2.4221,2.4185,2.4212,2.4214,2.4209,2.4284,2.4296,2.4351,2.4259,2.4261,2.4261,0,2.4065,2.4083,2.4136,2.4147,2.4157,2.4181,2.42,2.422,2.4233,2.4232,2.4245,2.4236,2.4266,2.4238,2.4278,2.4254,2.4265,2.4267,2.4269,2.4271,2.424,2.4287,2.4369,2.4377,2.4273,2.4272,2.4272,0,2.4119,2.4157,2.4193,2.4201,2.4214,2.4231,2.4238,2.4249,2.4262,2.4278,2.4286,2.4306,2.4317,2.4332,2.4328,2.4308,2.4368,2.4341,2.4368,2.4368,2.4381,2.438,2.4465,2.439,2.439,2.439,2.4389,0,2.4188,2.4221,2.4217,2.4239,2.4275,2.4269,2.4304,2.4308,2.4318,2.434,2.4326,2.4347,2.4341,2.4361,2.4358,2.4391,2.4396,2.4396,2.4394,2.4397,2.4396,2.4403,2.4399,2.4392,2.4391,2.4391,2.4391,0,2.4254,2.4253,2.4291,2.43,2.4303,2.4329,2.4337,2.4357,2.4357,2.4385,2.4391,2.4392,2.4415,2.4412,2.4438,2.4436,2.4477,2.4471,2.4472,2.4471,2.4498,2.4495,2.4589,2.4601,2.4519,2.452,2.4521,0,2.4297,2.4322,2.4334,2.4347,2.4355,2.4377,2.439,2.4384,2.4399,2.4414,2.4432,2.4454,2.4471,2.4508,2.451,2.453,2.4524,2.4555,2.4527,2.4527,2.4523,2.4521,2.4523,2.4561,2.4562,2.4563,2.4563,0,2.4374,2.4372,2.4391,2.4411,2.4427,2.4441,2.4455,2.4467,2.4462,2.4478,2.4502,2.4515,2.4541,2.4562,2.458,2.4585,2.4573,2.4572,2.4579,2.4582,2.4581,2.458,2.4487,2.457,2.4569,2.4569,2.4569,2.4568,2.4429,2.445,2.4461,2.4483,2.4492,2.4504,2.4524,2.4526,2.4546,2.4566,2.4562,2.4587,2.4598,2.4621,2.4628,2.4647,2.4636,2.4647,2.4649,2.4652,2.4654,2.4578,2.4651,2.4651,2.465,2.465,2.465,0,2.4504,2.451,2.453,2.4549,2.4566,2.4553,2.4567,2.4582,2.4605,2.4616,2.4633,2.4659,2.4679,2.4682,2.4701,2.4716,2.4711,2.4721,2.472,2.4721,2.4664,2.4656,2.4725,2.4725,2.4725,2.4725,2.4725,2.4725,2.4545,2.4579,2.4578,2.4615,2.4621,2.4646,2.4655,2.4666,2.4675,2.4704,2.4721,2.4723,2.4731,2.475,2.4768,2.4768,2.4775,2.4788,2.4786,2.4733,2.4725,2.4718,2.471,2.4789,2.479,2.4841,2.4841,2.4842]}]]